When you browse on this site, cookies collect data to enhance your experience and personalize the content and advertising you see.
Visit our Privacy Policy to learn more. By continuing to use the site, you agree to this use of cookies and data.
  • In Austria
  • List of Countries
  • For 7 days
  • Water Temperature
  • Weather Map
  • News
  • Weather Widgets
  • user-avatar
    Login

    Hourly Weather Huautla

    Today, 24 January, Friday

    Time Temperature Precipitation Wind Pressure Humidity
    00:00 +19°C° 0.1 mm 1 mps 724 mmHg 91%
    01:00 +19°C° 0.1 mm 1 mps 723 mmHg 91%
    02:00 +19°C° 0.1 mm 1 mps 723 mmHg 91%
    03:00 +19°C° 0 mm 1 mps 723 mmHg 91%
    04:00 +19°C° 0 mm 1 mps 723 mmHg 92%
    05:00 +18°C° 0 mm 1 mps 723 mmHg 92%
    06:00 +19°C° 0.2 mm 1 mps 724 mmHg 92%
    07:00 +19°C° 0.2 mm 1 mps 725 mmHg 91%
    08:00 +20°C° 0.2 mm 1 mps 726 mmHg 91%
    09:00 +20°C° 0.6 mm 2 mps 726 mmHg 89%
    10:00 +20°C° 0.6 mm 2 mps 726 mmHg 87%
    11:00 +21°C° 0.6 mm 3 mps 726 mmHg 84%
    12:00 +21°C° 0.4 mm 3 mps 725 mmHg 82%
    13:00 +22°C° 0.4 mm 3 mps 724 mmHg 80%
    14:00 +22°C° 0.4 mm 3 mps 724 mmHg 78%
    15:00 +21°C° 0.2 mm 2 mps 724 mmHg 82%
    16:00 +21°C° 0.2 mm 1 mps 724 mmHg 85%
    17:00 +20°C° 0.2 mm 1 mps 724 mmHg 88%
    18:00 +20°C° 0.1 mm 1 mps 725 mmHg 90%
    19:00 +20°C° 0.1 mm 1 mps 725 mmHg 92%
    20:00 +19°C° 0.1 mm 1 mps 726 mmHg 94%
    21:00 +19°C° 0 mm 1 mps 726 mmHg 95%
    22:00 +17°C° 0 mm 0 mps 725 mmHg 95%
    23:00 +17°C° 0 mm 0 mps 725 mmHg 96%

    Tomorrow, 25 January, Saturday

    Time Temperature Precipitation Wind Pressure Humidity
    00:00 +17°C° 0 mm 0 mps 725 mmHg 96%
    01:00 +16°C° 0 mm 0 mps 724 mmHg 97%
    02:00 +16°C° 0 mm 0 mps 724 mmHg 97%
    03:00 +16°C° 0 mm 0 mps 724 mmHg 97%
    04:00 +16°C° 0 mm 0 mps 724 mmHg 97%
    05:00 +16°C° 0 mm 0 mps 724 mmHg 98%
    06:00 +17°C° 0 mm 0 mps 724 mmHg 95%
    07:00 +17°C° 0 mm 0 mps 724 mmHg 93%
    08:00 +18°C° 0 mm 0 mps 725 mmHg 91%
    09:00 +21°C° 0 mm 1 mps 725 mmHg 88%
    10:00 +22°C° 0 mm 1 mps 724 mmHg 84%
    11:00 +23°C° 0 mm 1 mps 724 mmHg 81%
    12:00 +23°C° 0 mm 1 mps 723 mmHg 80%
    13:00 +24°C° 0 mm 2 mps 723 mmHg 79%
    14:00 +24°C° 0 mm 2 mps 722 mmHg 78%
    15:00 +23°C° 0.1 mm 2 mps 722 mmHg 81%
    16:00 +23°C° 0.1 mm 2 mps 721 mmHg 85%
    17:00 +21°C° 0.1 mm 2 mps 721 mmHg 89%
    18:00 +20°C° 0 mm 2 mps 722 mmHg 91%
    19:00 +20°C° 0 mm 1 mps 722 mmHg 93%
    20:00 +19°C° 0 mm 1 mps 723 mmHg 95%
    21:00 +19°C° 0 mm 1 mps 723 mmHg 95%
    22:00 +19°C° 0 mm 1 mps 723 mmHg 95%
    23:00 +17°C° 0 mm 0 mps 723 mmHg 95%

    Day after tomorrow, 26 January, Sunday

    Time Temperature Precipitation Wind Pressure Humidity
    00:00 +18°C° 0 mm 0 mps 723 mmHg 94%
    01:00 +18°C° 0 mm 0 mps 722 mmHg 94%
    02:00 +18°C° 0 mm 0 mps 722 mmHg 93%
    03:00 +19°C° 0 mm 1 mps 722 mmHg 93%
    04:00 +19°C° 0 mm 1 mps 722 mmHg 92%
    05:00 +19°C° 0 mm 1 mps 722 mmHg 92%
    06:00 +20°C° 0 mm 1 mps 722 mmHg 87%
    07:00 +21°C° 0 mm 1 mps 723 mmHg 83%
    08:00 +20°C° 0 mm 0 mps 724 mmHg 78%
    09:00 +24°C° 0 mm 1 mps 723 mmHg 75%
    10:00 +25°C° 0 mm 1 mps 723 mmHg 71%
    11:00 +26°C° 0 mm 1 mps 723 mmHg 67%
    12:00 +27°C° 0 mm 1 mps 722 mmHg 66%
    13:00 +27°C° 0 mm 1 mps 722 mmHg 66%
    14:00 +27°C° 0 mm 1 mps 721 mmHg 65%
    15:00 +26°C° 0.3 mm 1 mps 721 mmHg 69%
    16:00 +25°C° 0.3 mm 1 mps 722 mmHg 74%
    17:00 +22°C° 0.3 mm 0 mps 722 mmHg 78%
    18:00 +21°C° 0.2 mm 0 mps 722 mmHg 79%
    19:00 +23°C° 0.2 mm 1 mps 723 mmHg 80%
    20:00 +23°C° 0.2 mm 1 mps 723 mmHg 81%
    21:00 +22°C° 0.2 mm 1 mps 723 mmHg 82%
    22:00 +22°C° 0.2 mm 1 mps 723 mmHg 83%
    23:00 +21°C° 0.2 mm 1 mps 723 mmHg 83%

    27 January, Monday

    Time Temperature Precipitation Wind Pressure Humidity
    00:00 +21°C° 0 mm 1 mps 723 mmHg 84%
    01:00 +20°C° 0 mm 1 mps 723 mmHg 85%
    02:00 +20°C° 0 mm 1 mps 723 mmHg 86%
    03:00 +19°C° 0 mm 1 mps 723 mmHg 88%
    04:00 +19°C° 0 mm 1 mps 723 mmHg 89%
    05:00 +19°C° 0 mm 1 mps 723 mmHg 90%
    06:00 +20°C° 0 mm 1 mps 723 mmHg 87%
    07:00 +19°C° 0 mm 0 mps 723 mmHg 84%
    08:00 +20°C° 0 mm 0 mps 724 mmHg 81%
    09:00 +23°C° 0 mm 1 mps 724 mmHg 77%
    10:00 +25°C° 0 mm 1 mps 723 mmHg 72%
    11:00 +26°C° 0 mm 1 mps 723 mmHg 68%
    12:00 +26°C° 0 mm 2 mps 722 mmHg 67%
    13:00 +27°C° 0 mm 2 mps 721 mmHg 65%
    14:00 +27°C° 0 mm 2 mps 720 mmHg 64%
    15:00 +26°C° 0 mm 2 mps 720 mmHg 71%
    16:00 +25°C° 0 mm 2 mps 720 mmHg 78%
    17:00 +23°C° 0 mm 2 mps 720 mmHg 85%
    18:00 +21°C° 0 mm 2 mps 721 mmHg 88%
    19:00 +20°C° 0 mm 2 mps 721 mmHg 92%
    20:00 +19°C° 0 mm 2 mps 721 mmHg 96%
    21:00 +20°C° 0 mm 1 mps 721 mmHg 96%
    22:00 +20°C° 0 mm 1 mps 721 mmHg 95%
    23:00 +20°C° 0 mm 1 mps 721 mmHg 95%

    28 January, Tuesday

    Time Temperature Precipitation Wind Pressure Humidity
    00:00 +20°C° 0 mm 1 mps 720 mmHg 95%
    01:00 +18°C° 0 mm 0 mps 720 mmHg 95%
    02:00 +18°C° 0 mm 0 mps 720 mmHg 95%
    03:00 +18°C° 0 mm 0 mps 720 mmHg 94%
    04:00 +18°C° 0 mm 0 mps 720 mmHg 93%
    05:00 +18°C° 0 mm 0 mps 720 mmHg 92%
    06:00 +19°C° 0 mm 0 mps 721 mmHg 90%
    07:00 +19°C° 0 mm 0 mps 721 mmHg 88%
    08:00 +20°C° 0 mm 0 mps 722 mmHg 86%
    09:00 +23°C° 0 mm 1 mps 722 mmHg 81%
    10:00 +24°C° 0 mm 1 mps 722 mmHg 76%
    11:00 +26°C° 0 mm 2 mps 722 mmHg 71%
    12:00 +26°C° 0 mm 2 mps 721 mmHg 72%
    13:00 +26°C° 0 mm 3 mps 721 mmHg 73%
    14:00 +26°C° 0 mm 3 mps 720 mmHg 74%
    15:00 +25°C° 0.2 mm 3 mps 720 mmHg 79%
    16:00 +24°C° 0.2 mm 2 mps 721 mmHg 84%
    17:00 +23°C° 0.2 mm 1 mps 721 mmHg 88%
    18:00 +22°C° 0.3 mm 1 mps 722 mmHg 89%
    19:00 +22°C° 0.3 mm 1 mps 723 mmHg 89%
    20:00 +21°C° 0.3 mm 1 mps 723 mmHg 89%
    21:00 +21°C° 0.5 mm 1 mps 723 mmHg 90%
    22:00 +21°C° 0.5 mm 1 mps 723 mmHg 90%
    23:00 +20°C° 0.5 mm 1 mps 724 mmHg 90%

    29 January, Wednesday

    Time Temperature Precipitation Wind Pressure Humidity
    00:00 +20°C° 0 mm 1 mps 723 mmHg 90%
    01:00 +20°C° 0 mm 1 mps 723 mmHg 89%
    02:00 +20°C° 0 mm 1 mps 723 mmHg 89%
    03:00 +20°C° 0 mm 1 mps 723 mmHg 88%
    04:00 +19°C° 0 mm 1 mps 724 mmHg 87%
    05:00 +19°C° 0 mm 1 mps 724 mmHg 87%
    06:00 +19°C° 0 mm 1 mps 724 mmHg 87%
    07:00 +19°C° 0 mm 1 mps 725 mmHg 87%
    08:00 +19°C° 0 mm 1 mps 725 mmHg 88%
    09:00 +19°C° 0 mm 1 mps 725 mmHg 83%
    10:00 +19°C° 0 mm 1 mps 725 mmHg 79%
    11:00 +18°C° 0 mm 2 mps 725 mmHg 74%
    12:00 +18°C° 0 mm 2 mps 724 mmHg 73%
    13:00 +19°C° 0 mm 2 mps 723 mmHg 72%
    14:00 +19°C° 0 mm 2 mps 722 mmHg 70%
    15:00 +18°C° 0 mm 2 mps 722 mmHg 74%
    16:00 +18°C° 0 mm 2 mps 722 mmHg 78%
    17:00 +17°C° 0 mm 2 mps 722 mmHg 82%
    18:00 +18°C° 0 mm 1 mps 722 mmHg 83%
    19:00 +16°C° 0 mm 1 mps 723 mmHg 84%
    20:00 +16°C° 0 mm 1 mps 723 mmHg 84%
    21:00 +15°C° 0 mm 1 mps 723 mmHg 85%
    22:00 +15°C° 0 mm 1 mps 723 mmHg 87%
    23:00 +15°C° 0 mm 1 mps 723 mmHg 88%
    Show more